Time,TemperatureF,DewpointF,PressureIn,WindDirection,WindDirectionDegrees,WindSpeedMPH,WindSpeedGustMPH,Humidity,HourlyPrecipIn,Conditions,Clouds,dailyrainin,SolarRadiationWatts/m^2,SoftwareType,DateUTC
2013-02-14 00:21:00,16.0,11.0,-100.00,ENE,67,3.0,5.0,80,0.00,,,0.00,0.000000,,2013-02-14 07:21:00,
2013-02-14 00:32:00,16.0,11.0,-100.00,ENE,67,3.0,5.0,80,0.00,,,0.00,0.000000,,2013-02-14 07:32:00,
2013-02-14 00:41:00,16.0,11.0,-100.00,ENE,67,3.0,5.0,80,0.00,,,0.00,0.000000,,2013-02-14 07:41:00,
2013-02-14 00:51:00,16.0,11.0,-100.00,ENE,67,3.0,5.0,80,0.00,,,0.00,0.000000,,2013-02-14 07:51:00,
2013-02-14 01:21:00,15.0,10.0,-100.00,East,98,4.0,6.0,81,0.00,,,0.00,0.000000,,2013-02-14 08:21:00,
2013-02-14 01:32:00,15.0,10.0,-100.00,East,98,4.0,6.0,81,0.00,,,0.00,0.000000,,2013-02-14 08:32:00,
2013-02-14 01:43:00,15.0,10.0,-100.00,East,98,4.0,6.0,81,0.00,,,0.00,0.000000,,2013-02-14 08:43:00,
2013-02-14 01:52:00,15.0,10.0,-100.00,East,98,4.0,6.0,81,0.00,,,0.00,0.000000,,2013-02-14 08:52:00,
2013-02-14 02:21:00,15.0,11.0,-100.00,ENE,70,3.0,4.0,84,0.00,,,0.00,0.000000,,2013-02-14 09:21:00,
2013-02-14 02:32:00,15.0,11.0,-100.00,ENE,70,3.0,4.0,84,0.00,,,0.00,0.000000,,2013-02-14 09:32:00,
2013-02-14 02:42:00,15.0,11.0,-100.00,ENE,70,3.0,4.0,84,0.00,,,0.00,0.000000,,2013-02-14 09:42:00,
2013-02-14 02:51:00,15.0,11.0,-100.00,ENE,70,3.0,4.0,84,0.00,,,0.00,0.000000,,2013-02-14 09:51:00,
2013-02-14 03:21:00,15.0,9.0,-100.00,East,82,2.0,5.0,78,0.00,,,0.00,0.000000,,2013-02-14 10:21:00,
2013-02-14 03:31:00,15.0,9.0,-100.00,East,82,2.0,5.0,78,0.00,,,0.00,0.000000,,2013-02-14 10:31:00,
2013-02-14 03:42:00,15.0,9.0,-100.00,East,82,2.0,5.0,78,0.00,,,0.00,0.000000,,2013-02-14 10:42:00,
2013-02-14 03:52:00,15.0,9.0,-100.00,East,82,2.0,5.0,78,0.00,,,0.00,0.000000,,2013-02-14 10:52:00,
2013-02-14 04:21:00,16.0,10.0,-100.00,ENE,72,2.0,4.0,77,0.00,,,0.00,0.000000,,2013-02-14 11:21:00,
2013-02-14 04:32:00,16.0,10.0,-100.00,ENE,72,2.0,4.0,77,0.00,,,0.00,0.000000,,2013-02-14 11:32:00,
2013-02-14 04:42:00,16.0,10.0,-100.00,ENE,72,2.0,4.0,77,0.00,,,0.00,0.000000,,2013-02-14 11:42:00,
2013-02-14 04:52:00,16.0,10.0,-100.00,ENE,72,2.0,4.0,77,0.00,,,0.00,0.000000,,2013-02-14 11:52:00,
2013-02-14 05:22:00,15.0,12.0,-100.00,ESE,107,1.0,3.0,86,0.00,,,0.00,0.000000,,2013-02-14 12:22:00,
2013-02-14 05:32:00,15.0,12.0,-100.00,ESE,107,1.0,3.0,86,0.00,,,0.00,0.000000,,2013-02-14 12:32:00,
2013-02-14 05:42:00,15.0,12.0,-100.00,ESE,107,1.0,3.0,86,0.00,,,0.00,0.000000,,2013-02-14 12:42:00,
2013-02-14 05:53:00,15.0,12.0,-100.00,ESE,107,1.0,3.0,86,0.00,,,0.00,0.000000,,2013-02-14 12:53:00,
2013-02-14 06:21:00,16.0,14.0,-100.00,West,260,7.0,9.0,91,0.00,,,0.00,0.000000,,2013-02-14 13:21:00,
2013-02-14 06:32:00,16.0,14.0,-100.00,West,260,7.0,9.0,91,0.00,,,0.00,0.000000,,2013-02-14 13:32:00,
2013-02-14 06:42:00,16.0,14.0,-100.00,West,260,7.0,9.0,91,0.00,,,0.00,0.000000,,2013-02-14 13:42:00,
2013-02-14 06:51:00,16.0,14.0,-100.00,West,260,7.0,9.0,91,0.00,,,0.00,0.000000,,2013-02-14 13:51:00,
2013-02-14 07:21:00,17.0,15.0,-100.00,West,275,7.0,16.0,90,0.00,,,0.00,0.000000,,2013-02-14 14:21:00,
2013-02-14 07:31:00,17.0,15.0,-100.00,West,275,7.0,16.0,90,0.00,,,0.00,0.000000,,2013-02-14 14:31:00,
2013-02-14 07:41:00,17.0,15.0,-100.00,West,275,7.0,16.0,90,0.00,,,0.00,0.000000,,2013-02-14 14:41:00,
2013-02-14 07:52:00,17.0,15.0,-100.00,West,275,7.0,16.0,90,0.00,,,0.00,0.000000,,2013-02-14 14:52:00,
2013-02-14 08:21:00,17.0,15.0,-100.00,West,276,4.0,11.0,90,0.00,,,0.00,18.000000,,2013-02-14 15:21:00,
2013-02-14 08:32:00,17.0,15.0,-100.00,West,276,4.0,11.0,90,0.00,,,0.00,18.000000,,2013-02-14 15:32:00,
2013-02-14 08:42:00,17.0,15.0,-100.00,West,276,4.0,11.0,90,0.00,,,0.00,18.000000,,2013-02-14 15:42:00,
2013-02-14 08:52:00,17.0,15.0,-100.00,West,276,4.0,11.0,90,0.00,,,0.00,18.000000,,2013-02-14 15:52:00,
2013-02-14 09:21:00,18.0,15.0,-100.00,West,262,4.0,8.0,89,0.00,,,-99.99,64.000000,,2013-02-14 16:21:00,
2013-02-14 09:32:00,18.0,15.0,-100.00,West,262,4.0,8.0,89,0.00,,,-99.99,64.000000,,2013-02-14 16:32:00,
2013-02-14 09:41:00,18.0,15.0,-100.00,West,262,4.0,8.0,89,0.00,,,-99.99,64.000000,,2013-02-14 16:41:00,
2013-02-14 09:51:00,18.0,15.0,-100.00,West,262,4.0,8.0,89,0.00,,,-99.99,64.000000,,2013-02-14 16:51:00,
2013-02-14 10:21:00,22.0,18.0,-100.00,WSW,255,7.0,10.0,85,0.00,,,0.00,239.000000,,2013-02-14 17:21:00,
2013-02-14 10:32:00,22.0,18.0,-100.00,WSW,255,7.0,10.0,85,0.00,,,0.00,239.000000,,2013-02-14 17:32:00,
2013-02-14 10:42:00,22.0,18.0,-100.00,WSW,255,7.0,10.0,85,0.00,,,0.00,239.000000,,2013-02-14 17:42:00,
2013-02-14 10:52:00,22.0,18.0,-100.00,WSW,255,7.0,10.0,85,0.00,,,0.00,239.000000,,2013-02-14 17:52:00,
2013-02-14 11:23:00,23.0,17.0,-100.00,West,266,10.0,16.0,79,0.01,,,0.01,385.000000,,2013-02-14 18:23:00,
2013-02-14 11:32:00,23.0,17.0,-100.00,West,266,10.0,16.0,79,0.01,,,0.01,385.000000,,2013-02-14 18:32:00,
2013-02-14 11:42:00,23.0,17.0,-100.00,West,266,10.0,16.0,79,0.01,,,0.01,385.000000,,2013-02-14 18:42:00,
2013-02-14 11:51:00,23.0,17.0,-100.00,West,266,10.0,16.0,79,0.01,,,0.01,385.000000,,2013-02-14 18:51:00,
2013-02-14 12:21:00,24.0,16.0,-100.00,WSW,258,17.0,25.0,70,0.04,,,0.05,630.000000,,2013-02-14 19:21:00,
2013-02-14 12:32:00,24.0,16.0,-100.00,WSW,258,17.0,25.0,70,0.04,,,0.05,630.000000,,2013-02-14 19:32:00,
2013-02-14 12:42:00,24.0,16.0,-100.00,WSW,258,17.0,25.0,70,0.04,,,0.05,630.000000,,2013-02-14 19:42:00,
2013-02-14 12:51:00,24.0,16.0,-100.00,WSW,258,17.0,25.0,70,0.04,,,0.05,630.000000,,2013-02-14 19:51:00,
2013-02-14 13:21:00,21.0,17.0,-100.00,West,259,13.0,26.0,86,0.00,,,0.05,540.000000,,2013-02-14 20:21:00,
2013-02-14 13:32:00,21.0,17.0,-100.00,West,259,13.0,26.0,86,0.00,,,0.05,540.000000,,2013-02-14 20:32:00,
2013-02-14 13:42:00,21.0,17.0,-100.00,West,259,13.0,26.0,86,0.00,,,0.05,540.000000,,2013-02-14 20:42:00,
2013-02-14 13:52:00,21.0,17.0,-100.00,West,259,13.0,26.0,86,0.00,,,0.05,540.000000,,2013-02-14 20:52:00,
2013-02-14 14:21:00,21.0,17.0,-100.00,West,263,12.0,19.0,85,0.00,,,0.05,294.000000,,2013-02-14 21:21:00,
2013-02-14 14:31:00,21.0,17.0,-100.00,West,263,12.0,19.0,85,0.00,,,0.05,294.000000,,2013-02-14 21:31:00,
2013-02-14 14:42:00,21.0,17.0,-100.00,West,263,12.0,19.0,85,0.00,,,0.05,294.000000,,2013-02-14 21:42:00,
2013-02-14 14:51:00,21.0,17.0,-100.00,West,263,12.0,19.0,85,0.00,,,0.05,294.000000,,2013-02-14 21:51:00,
2013-02-14 15:21:00,21.0,17.0,-100.00,West,264,10.0,17.0,86,0.00,,,0.05,250.000000,,2013-02-14 22:21:00,
2013-02-14 15:31:00,21.0,17.0,-100.00,West,264,10.0,17.0,86,0.00,,,0.05,250.000000,,2013-02-14 22:31:00,
2013-02-14 15:42:00,21.0,17.0,-100.00,West,264,10.0,17.0,86,0.00,,,0.05,250.000000,,2013-02-14 22:42:00,
2013-02-14 15:51:00,21.0,17.0,-100.00,West,264,10.0,17.0,86,0.00,,,0.05,250.000000,,2013-02-14 22:51:00,
2013-02-14 16:21:00,25.0,13.0,-100.00,West,264,13.0,19.0,59,0.00,,,0.05,539.000000,,2013-02-14 23:21:00,
2013-02-14 16:32:00,25.0,13.0,-100.00,West,264,13.0,19.0,59,0.00,,,0.05,539.000000,,2013-02-14 23:32:00,
2013-02-14 16:41:00,25.0,13.0,-100.00,West,264,13.0,19.0,59,0.00,,,0.05,539.000000,,2013-02-14 23:41:00,
2013-02-14 16:52:00,25.0,13.0,-100.00,West,264,13.0,19.0,59,0.00,,,0.05,539.000000,,2013-02-14 23:52:00,
2013-02-14 17:22:00,19.0,11.0,-100.00,West,270,2.0,19.0,72,0.00,,,0.05,211.000000,,2013-02-15 00:22:00,
2013-02-14 17:32:00,19.0,11.0,-100.00,West,270,2.0,19.0,72,0.00,,,0.05,211.000000,,2013-02-15 00:32:00,
2013-02-14 17:42:00,19.0,11.0,-100.00,West,270,2.0,19.0,72,0.00,,,0.05,211.000000,,2013-02-15 00:42:00,
2013-02-14 17:51:00,19.0,11.0,-100.00,West,270,2.0,19.0,72,0.00,,,0.05,211.000000,,2013-02-15 00:51:00,
2013-02-14 18:21:00,17.0,10.0,-100.00,WNW,290,3.0,6.0,75,0.00,,,0.05,21.000000,,2013-02-15 01:21:00,
2013-02-14 18:31:00,17.0,10.0,-100.00,WNW,290,3.0,6.0,75,0.00,,,0.05,21.000000,,2013-02-15 01:31:00,
2013-02-14 18:41:00,17.0,10.0,-100.00,WNW,290,3.0,6.0,75,0.00,,,0.05,21.000000,,2013-02-15 01:41:00,
2013-02-14 18:51:00,17.0,10.0,-100.00,WNW,290,3.0,6.0,75,0.00,,,0.05,21.000000,,2013-02-15 01:51:00,
2013-02-14 19:21:00,17.0,9.0,-100.00,West,280,6.0,10.0,71,0.00,,,0.05,0.000000,,2013-02-15 02:21:00,
2013-02-14 19:31:00,17.0,9.0,-100.00,West,280,6.0,10.0,71,0.00,,,0.05,0.000000,,2013-02-15 02:31:00,
2013-02-14 19:41:00,17.0,9.0,-100.00,West,280,6.0,10.0,71,0.00,,,0.05,0.000000,,2013-02-15 02:41:00,
2013-02-14 19:52:00,17.0,9.0,-100.00,West,280,6.0,10.0,71,0.00,,,0.05,0.000000,,2013-02-15 02:52:00,
2013-02-14 20:22:00,17.0,9.0,-100.00,WNW,289,7.0,11.0,69,0.00,,,0.05,0.000000,,2013-02-15 03:22:00,
2013-02-14 20:32:00,17.0,9.0,-100.00,WNW,289,7.0,11.0,69,0.00,,,0.05,0.000000,,2013-02-15 03:32:00,
2013-02-14 20:42:00,17.0,9.0,-100.00,WNW,289,7.0,11.0,69,0.00,,,0.05,0.000000,,2013-02-15 03:42:00,
2013-02-14 20:51:00,17.0,9.0,-100.00,WNW,289,7.0,11.0,69,0.00,,,0.05,0.000000,,2013-02-15 03:51:00,
2013-02-14 21:21:00,17.0,8.0,-100.00,WSW,257,5.0,9.0,66,0.00,,,0.05,0.000000,,2013-02-15 04:21:00,
2013-02-14 21:32:00,17.0,8.0,-100.00,WSW,257,5.0,9.0,66,0.00,,,0.05,0.000000,,2013-02-15 04:32:00,
2013-02-14 21:42:00,17.0,8.0,-100.00,WSW,257,5.0,9.0,66,0.00,,,0.05,0.000000,,2013-02-15 04:42:00,
2013-02-14 21:52:00,17.0,8.0,-100.00,WSW,257,5.0,9.0,66,0.00,,,0.05,0.000000,,2013-02-15 04:52:00,
2013-02-14 22:22:00,17.0,7.0,-100.00,West,277,6.0,13.0,65,0.00,,,0.05,0.000000,,2013-02-15 05:22:00,
2013-02-14 22:32:00,17.0,7.0,-100.00,West,277,6.0,13.0,65,0.00,,,0.05,0.000000,,2013-02-15 05:32:00,
2013-02-14 22:42:00,17.0,7.0,-100.00,West,277,6.0,13.0,65,0.00,,,0.05,0.000000,,2013-02-15 05:42:00,
2013-02-14 22:52:00,17.0,7.0,-100.00,West,277,6.0,13.0,65,0.00,,,0.05,0.000000,,2013-02-15 05:52:00,
2013-02-14 23:22:00,17.0,8.0,-100.00,West,276,14.0,21.0,68,0.00,,,0.05,0.000000,,2013-02-15 06:22:00,
2013-02-14 23:32:00,17.0,8.0,-100.00,West,276,14.0,21.0,68,0.00,,,0.05,0.000000,,2013-02-15 06:32:00,
2013-02-14 23:42:00,17.0,8.0,-100.00,West,276,14.0,21.0,68,0.00,,,0.05,0.000000,,2013-02-15 06:42:00,
2013-02-14 23:51:00,17.0,8.0,-100.00,West,276,14.0,21.0,68,0.00,,,0.05,0.000000,,2013-02-15 06:51:00,